Regional Weather Roundup
Issued by NWS

Home | Current Version | Previous Version | Text Only | Print | Product List | Glossary Off
Versions: 1 2 3 4 5 6 7 8 9 10 11 12 13 14 15 16 17 18 19 20 21 22 23 24 25 26 27 28 29 30 31 32 33 34 35 36 37 38 39 40 41 42 43 44 45 46 47 48 49 50

000
ASUS43 KMKX 040511
RWRWI

WISCONSIN REGIONAL WEATHER ROUNDUP
NATIONAL WEATHER SERVICE MILWAUKEE/SULLIVAN WI
1200 AM CDT MON MAY 04 2015

NOTE: "FAIR" INDICATES FEW OR NO CLOUDS BELOW 12,000 FEET WITH NO
SIGNIFICANT WEATHER AND/OR OBSTRUCTIONS TO VISIBILITY.

WIZ001-002-006>008-014>016-023>028-040600-
NORTHWEST WISCONSIN

CITY           SKY/WX    TMP DP  RH WIND       PRES   REMARKS
SUPERIOR ARPT  MOCLDY    47  35  62 NW8       29.93R
ASHLAND        CLOUDY    51  47  86 SW7       29.92R
HAYWARD        CLOUDY    50  46  86 CALM      29.94R
SIREN          CLOUDY    46  41  83 CALM      29.94S
CUMBERLAND     CLOUDY    52  45  76 NW8       29.93R
RICE LAKE      CLOUDY    54  47  76 NW3       29.94R
CHETEK         CLOUDY    54  54 100 NW3       29.91R FOG
LADYSMITH      CLOUDY    53  51  92 CALM      29.93R
EAU CLAIRE     CLOUDY    55  53  93 CALM      29.89R
MENOMONIE      CLOUDY    58  52  80 CALM      29.89R
NEW RICHMOND   CLOUDY    53  46  75 NW5       29.94R
OSCEOLA        MOCLDY    54  46  76 N3        29.96R
$$

WIZ003>005-009-010-017-018-040600-
NORTH CENTRAL WISCONSIN

CITY           SKY/WX    TMP DP  RH WIND       PRES   REMARKS
MANITOWISH WTR CLOUDY    55  47  74 CALM      29.92R
ARBOR VITAE    CLOUDY    52  50  93 CALM      29.91R
WOODRUFF       CLOUDY    52  50  93 CALM      29.91R
RHINELANDER    CLOUDY    55  49  80 S3        29.92R
EAGLE RIVER    CLOUDY    54  51  91 CALM      29.89S
LAND O LAKES   CLOUDY    54  50  86 CALM      29.92R
PHILLIPS       CLOUDY    51  51 100 CALM      29.91R
TOMAHAWK       CLOUDY    52  51  95 CALM      29.92R FOG
MEDFORD        CLOUDY    55  54  97 N5        29.90S
MERRILL        CLOUDY    55  54  99 NE3       29.91R
$$

WIZ029-030-035-036-043>047-040600-
CENTRAL WISCONSIN

CITY           SKY/WX    TMP DP  RH WIND       PRES   REMARKS
WAUSAU         CLOUDY    58  56  93 E6        29.87F
MOSINEE        CLOUDY    55  55 100 E5        29.88F
MARSHFIELD     LGT RAIN  59  32  36 SE7       29.89R
STEVENS POINT  LGT RAIN  56  55  95 N3        29.89F
WAUPACA        LGT RAIN  62  57  82 NW7       29.91R
WAUTOMA        RAIN      61  57  88 N8        29.91R FOG
WISC RAPIDS    LGT RAIN  58  55  90 SE6       29.90F
CAMP DOUGLAS   RAIN      59  59 100 S6        29.92F
$$

WIZ011>013-019>022-031-037>040-048>050-040600-
NORTHEAST WISCONSIN

CITY           SKY/WX    TMP DP  RH WIND       PRES   REMARKS
ANTIGO         HVY RAIN  56  55  96 S8        29.94R
SHAWANO        RAIN      62  57  85 NW5       29.92R
OCONTO         CLOUDY    61  57  87 CALM      29.89R
STURGEON BAY   CLOUDY    57  52  82 NE5       29.92F
GREEN BAY      CLOUDY    65  56  72 W5        29.90S THUNDER
MANITOWOC      CLOUDY    54  50  86 CALM      29.87F
APPLETON       CLOUDY    61  54  77 CALM      29.89F
CLINTONVILLE   RAIN      59  55  88 CALM      29.93R
OSHKOSH        CLOUDY    64  55  72 W5        29.87R THUNDER
$$

WIZ032>034-041-042-053>061-040600-
SOUTHWEST WISCONSIN

CITY           SKY/WX    TMP DP  RH WIND       PRES   REMARKS
LA CROSSE      LGT RAIN  62  58  86 S8G22     29.82F
SPARTA         RAIN      59  58  96 SE8       29.90F
VIROQUA        CLOUDY    57  57 100 E9        29.92F
BOSCOBEL       RAIN      60  57  89 VRB3      29.95F FOG
PRAIRIE DU CHI RAIN      58  55  90 E10       29.90F
PLATTEVILLE    CLOUDY    60  53  77 NW20G30   29.95R
$$

WIZ056-057-062-063-064-067-068-040600-
SOUTH CENTRAL WISCONSIN

CITY           SKY/WX    TMP DP  RH WIND       PRES   REMARKS
REEDSBURG      RAIN      58  56  94 N5        29.93R
BARABOO/DELLS  NOT AVBL
LONE ROCK      TSTM      60  57  89 W14       29.97R FOG
MINERAL POINT  HVY RAIN  61  55  82 N22G35    29.94R
MADISON        CLOUDY    64  55  72 NW12G22   29.90R THUNDER
MIDDLETON      CLOUDY    64  56  73 NW17G29   29.92R
WATERTOWN      CLOUDY    61  58  88 W7        29.87R
MONROE         CLOUDY    61  55  82 S10       29.87S
JANESVILLE     CLOUDY    63  54  72 S8        29.88S
$$

WIZ051-052-058>065-066-070>072-040600-
SOUTHEAST WISCONSIN

CITY           SKY/WX    TMP DP  RH WIND       PRES   REMARKS
MILWAUKEE      MOCLDY    63  54  72 S10       29.88F
WAUKESHA       CLOUDY    59  52  77 S5        29.89F
MILWAUKEE/TIMM CLOUDY    63  52  67 S9        29.88S
RACINE         MOCLDY    61  53  75 S6        29.90F
BURLINGTON     MOCLDY    57  53  86 S5        29.89S
KENOSHA        MOCLDY    63  55  75 S9        29.89F
FOND DU LAC    CLOUDY    64  54  69 W9        29.89R THUNDER
SHEBOYGAN      CLOUDY    63  54  72 SW8       29.85F
WEST BEND      CLOUDY    63  52  67 S9        29.86F
JUNEAU         CLOUDY    61  55  80 S9        29.87S
$$

LSZ147-162-040600-
LAKE SUPERIOR

STATION/POSITION TIME  TEMP    WIND        PRES    WAVE
                       AIR SEA DIR/SP/G            HT/PER
                 (UTC) (F)     (DEG/KT/KT) (MB)    (FT/S)
W MID LAKE BUOY  0450   46 35  230/  6/ 10 1012.7R   1/ 3
DEVILS ISLAND    0500   54     300/  9/ 10 1012.9R
PORT WING        0440   51      CALM  /  6 1013.2R
SAXON HARBOR     0400   51        CALM     1011.9R
$$

LMZ867-665-643>646-040600-
LAKE MICHIGAN

STATION/POSITION TIME  TEMP    WIND        PRES    WAVE
                       AIR SEA DIR/SP/G            HT/PER
                 (UTC) (F)     (DEG/KT/KT) (MB)    (FT/S)
CHAMBERS ISLAND  0400   57     260/  7/  8 1013.2R
NORTHPORT PIER   0400   50      CALM  /  3 1011.9R
SISTER BAY       0302   57     290/ 16/ 22   N/A
KEWAUNEE LAKESHO 0412   49     180/ 10/ 11 1010.7F
SHEBOYGAN LAKESH 0500   49     180/ 11/ 11 1011.5F
PORT WASHINGTON  0440   55     190/  7/  9 1011.9F
ATWATER BUOY     0400   52     160/ 10/ 12 1013.5R
MILWAUKEE LAKESH 0400   64     210/ 10/ 13   N/A
KENOSHA   LAKESH 0500   52     180/  9/ 13 1012.2S
$$

TC  - TEMPERATURE IN CELSIUS
VSB - VISIBILITY IN STATUTE MILES
WCI - WIND CHILL INDEX
HX  - HEAT INDEX



USA.gov is the U.S. government's official web portal to all federal, state and local government web resources and services.